| time (UTC) | temp F | wind direction | speed MPH | gust MPH | rain 1hr in | rain 24hr in | rain mn in | humidity % | barometer mb |
| 20260510222503 | 54 | 284 | 8.0 | 14.0 | 0.00 | 0.29 | 0.00 | 74 | 1029.6 |
| 20260510222003 | 54 | 281 | 8.0 | 15.0 | 0.00 | 0.29 | 0.00 | 73 | 1029.6 |
| 20260510221503 | 54 | 281 | 10.0 | 18.0 | 0.00 | 0.29 | 0.00 | 73 | 1029.8 |
| 20260510221003 | 54 | 282 | 10.0 | 18.0 | 0.00 | 0.30 | 0.00 | 73 | 1029.5 |
| 20260510220503 | 54 | 282 | 9.0 | 17.0 | 0.00 | 0.30 | 0.00 | 73 | 1029.6 |
| 20260510220025 | 54 | 279 | 9.0 | 17.0 | 0.00 | 0.30 | 0.00 | 73 | 1029.4 |
| 20260510215503 | 54 | 278 | 9.0 | 14.0 | 0.00 | 0.30 | 0.30 | 73 | 1029.4 |
| 20260510215003 | 54 | 280 | 8.0 | 14.0 | 0.00 | 0.30 | 0.30 | 71 | 1029.6 |
| 20260510214503 | 54 | 284 | 8.0 | 14.0 | 0.00 | 0.30 | 0.30 | 71 | 1029.4 |
| 20260510214003 | 55 | 288 | 10.0 | 18.0 | 0.00 | 0.30 | 0.30 | 70 | 1029.5 |
| 20260510213503 | 55 | 290 | 12.0 | 19.0 | 0.00 | 0.30 | 0.30 | 69 | 1029.4 |
| 20260510213003 | 55 | 290 | 12.0 | 19.0 | 0.00 | 0.30 | 0.30 | 69 | 1029.3 |
| 20260510212503 | 55 | 288 | 12.0 | 18.0 | 0.00 | 0.30 | 0.30 | 69 | 1029.5 |
| 20260510212003 | 55 | 286 | 11.0 | 18.0 | 0.00 | 0.30 | 0.30 | 70 | 1029.6 |
| 20260510211524 | 54 | 285 | 10.0 | 17.0 | 0.00 | 0.30 | 0.30 | 70 | 1029.3 |
| 20260510211003 | 54 | 287 | 9.0 | 15.0 | 0.00 | 0.30 | 0.30 | 70 | 1029.4 |
| 20260510210503 | 54 | 289 | 8.0 | 13.0 | 0.00 | 0.30 | 0.30 | 71 | 1029.1 |
| 20260510210004 | 54 | 285 | 6.0 | 13.0 | 0.00 | 0.30 | 0.30 | 72 | 1029.1 |
| 20260510205504 | 54 | 279 | 5.0 | 9.0 | 0.00 | 0.30 | 0.30 | 75 | 1029.3 |
| 20260510205003 | 54 | 277 | 6.0 | 11.0 | 0.00 | 0.30 | 0.30 | 75 | 1029.1 |
| 20260510204503 | 54 | 274 | 6.0 | 11.0 | 0.00 | 0.30 | 0.30 | 75 | 1029.3 |
| 20260510204004 | 54 | 268 | 8.0 | 13.0 | 0.00 | 0.30 | 0.30 | 74 | 1028.9 |
| 20260510203524 | 54 | 266 | 9.0 | 13.0 | 0.00 | 0.30 | 0.30 | 74 | 1029.1 |
| 20260510203003 | 54 | 266 | 9.0 | 14.0 | 0.00 | 0.30 | 0.30 | 73 | 1028.9 |
| 20260510202503 | 54 | 264 | 8.0 | 14.0 | 0.00 | 0.30 | 0.30 | 73 | 1029.0 |
| 20260510202003 | 54 | 261 | 9.0 | 15.0 | 0.00 | 0.30 | 0.30 | 72 | 1028.8 |
| 20260510201503 | 55 | 257 | 10.0 | 15.0 | 0.00 | 0.30 | 0.30 | 72 | 1028.8 |
| 20260510201003 | 55 | 253 | 10.0 | 15.0 | 0.00 | 0.31 | 0.30 | 71 | 1028.8 |
| 20260510200503 | 55 | 256 | 10.0 | 15.0 | 0.00 | 0.31 | 0.30 | 70 | 1028.7 |
| 20260510200024 | 54 | 262 | 10.0 | 15.0 | 0.00 | 0.31 | 0.30 | 72 | 1028.5 |
| 20260510195504 | 54 | 266 | 10.0 | 15.0 | 0.00 | 0.31 | 0.30 | 73 | 1028.7 |
| 20260510195003 | 54 | 271 | 9.0 | 15.0 | 0.00 | 0.31 | 0.30 | 73 | 1028.6 |
| 20260510194503 | 55 | 276 | 8.0 | 15.0 | 0.00 | 0.31 | 0.30 | 72 | 1028.5 |
| 20260510194003 | 55 | 279 | 10.0 | 17.0 | 0.00 | 0.31 | 0.30 | 71 | 1028.4 |
| 20260510193503 | 55 | 279 | 10.0 | 19.0 | 0.00 | 0.31 | 0.30 | 71 | 1028.4 |
| 20260510193003 | 54 | 273 | 9.0 | 19.0 | 0.00 | 0.31 | 0.30 | 73 | 1028.2 |
| 20260510192503 | 54 | 272 | 8.0 | 15.0 | 0.00 | 0.31 | 0.30 | 76 | 1028.2 |
| 20260510192003 | 55 | 277 | 8.0 | 15.0 | 0.00 | 0.31 | 0.30 | 74 | 1028.4 |
| 20260510191524 | 55 | 278 | 9.0 | 17.0 | 0.00 | 0.31 | 0.30 | 73 | 1028.6 |
| 20260510191003 | 55 | 279 | 11.0 | 18.0 | 0.00 | 0.31 | 0.30 | 71 | 1028.2 |
| 20260510190524 | 56 | 283 | 11.0 | 19.0 | 0.00 | 0.31 | 0.30 | 69 | 1028.1 |
| 20260510190004 | 56 | 285 | 11.0 | 19.0 | 0.00 | 0.31 | 0.30 | 69 | 1028.0 |
| 20260510185503 | 56 | 286 | 11.0 | 19.0 | 0.00 | 0.31 | 0.30 | 69 | 1028.0 |
| 20260510185003 | 56 | 290 | 12.0 | 22.0 | 0.00 | 0.31 | 0.30 | 69 | 1027.9 |
| 20260510184503 | 56 | 292 | 12.0 | 22.0 | 0.00 | 0.31 | 0.30 | 68 | 1028.1 |
| 20260510184003 | 56 | 293 | 12.0 | 19.0 | 0.00 | 0.31 | 0.30 | 68 | 1028.1 |
| 20260510183503 | 56 | 293 | 12.0 | 19.0 | 0.00 | 0.31 | 0.30 | 69 | 1028.1 |
| 20260510183004 | 56 | 292 | 11.0 | 19.0 | 0.00 | 0.31 | 0.30 | 70 | 1027.8 |
| 20260510182503 | 56 | 292 | 12.0 | 23.0 | 0.00 | 0.31 | 0.30 | 69 | 1028.0 |
| 20260510182003 | 56 | 293 | 13.0 | 23.0 | 0.00 | 0.31 | 0.30 | 68 | 1028.0 |
| 20260510181503 | 57 | 290 | 12.0 | 23.0 | 0.00 | 0.31 | 0.30 | 67 | 1027.9 |
| 20260510181003 | 57 | 283 | 11.0 | 23.0 | 0.00 | 0.31 | 0.30 | 68 | 1027.7 |
| 20260510180503 | 57 | 284 | 11.0 | 18.0 | 0.00 | 0.31 | 0.30 | 67 | 1027.7 |
| 20260510180003 | 58 | 289 | 10.0 | 17.0 | 0.00 | 0.31 | 0.30 | 66 | 1027.6 |
| 20260510175524 | 58 | 294 | 10.0 | 16.0 | 0.00 | 0.31 | 0.30 | 65 | 1027.9 |
| 20260510175003 | 58 | 296 | 10.0 | 16.0 | 0.00 | 0.31 | 0.30 | 64 | 1027.6 |
| 20260510174503 | 58 | 296 | 10.0 | 16.0 | 0.00 | 0.31 | 0.30 | 63 | 1027.3 |
| 20260510174024 | 58 | 301 | 9.0 | 16.0 | 0.00 | 0.31 | 0.30 | 64 | 1027.4 |
| 20260510173524 | 58 | 309 | 9.0 | 16.0 | 0.00 | 0.31 | 0.30 | 64 | 1027.9 |
| 20260510173003 | 58 | 313 | 9.0 | 17.0 | 0.00 | 0.31 | 0.30 | 67 | 1027.6 |
| 20260510172524 | 58 | 310 | 9.0 | 17.0 | 0.00 | 0.31 | 0.30 | 68 | 1028.0 |
| 20260510172003 | 58 | 307 | 8.0 | 15.0 | 0.00 | 0.31 | 0.30 | 70 | 1028.1 |
| 20260510171503 | 57 | 317 | 7.0 | 12.0 | 0.00 | 0.31 | 0.30 | 74 | 1028.3 |
| 20260510171004 | 57 | 315 | 7.0 | 12.0 | 0.00 | 0.31 | 0.30 | 75 | 1028.2 |
| 20260510170503 | 57 | 313 | 6.0 | 12.0 | 0.00 | 0.31 | 0.30 | 75 | 1028.2 |
| 20260510170024 | 57 | 334 | 6.0 | 11.0 | 0.00 | 0.31 | 0.30 | 76 | 1028.3 |
| 20260510165503 | 57 | 353 | 5.0 | 10.0 | 0.00 | 0.31 | 0.30 | 76 | 1028.3 |
| 20260510165003 | 56 | 6 | 6.0 | 11.0 | 0.00 | 0.31 | 0.30 | 78 | 1028.1 |
| 20260510164503 | 57 | 15 | 6.0 | 13.0 | 0.00 | 0.31 | 0.30 | 76 | 1028.4 |
| 20260510164003 | 57 | 6 | 7.0 | 16.0 | 0.00 | 0.31 | 0.30 | 76 | 1028.2 |
| 20260510163524 | 58 | 344 | 8.0 | 16.0 | 0.00 | 0.31 | 0.30 | 74 | 1028.1 |
| 20260510163003 | 59 | 318 | 9.0 | 18.0 | 0.00 | 0.31 | 0.30 | 66 | 1028.2 |
| 20260510162503 | 59 | 311 | 9.0 | 18.0 | 0.00 | 0.31 | 0.30 | 65 | 1028.1 |
| 20260510162024 | 59 | 309 | 10.0 | 17.0 | 0.00 | 0.31 | 0.30 | 64 | 1028.1 |
| 20260510161524 | 59 | 302 | 11.0 | 17.0 | 0.00 | 0.31 | 0.30 | 64 | 1027.8 |
| 20260510161003 | 59 | 306 | 11.0 | 17.0 | 0.00 | 0.31 | 0.30 | 65 | 1027.6 |
| 20260510160503 | 59 | 322 | 10.0 | 17.0 | 0.00 | 0.31 | 0.30 | 66 | 1027.6 |
| 20260510160004 | 60 | 331 | 10.0 | 17.0 | 0.00 | 0.31 | 0.30 | 64 | 1027.6 |
| 20260510155524 | 60 | 319 | 9.0 | 17.0 | 0.00 | 0.31 | 0.30 | 64 | 1027.7 |
| 20260510155003 | 59 | 310 | 8.0 | 15.0 | 0.00 | 0.31 | 0.30 | 67 | 1027.2 |
| 20260510154503 | 59 | 311 | 8.0 | 16.0 | 0.00 | 0.31 | 0.30 | 69 | 1027.6 |
| 20260510154003 | 58 | 303 | 9.0 | 16.0 | 0.00 | 0.31 | 0.30 | 72 | 1027.7 |
| 20260510153504 | 58 | 309 | 8.0 | 13.0 | 0.00 | 0.31 | 0.30 | 71 | 1027.7 |
| 20260510153003 | 58 | 321 | 6.0 | 11.0 | 0.00 | 0.31 | 0.30 | 72 | 1027.8 |
| 20260510152503 | 58 | 328 | 6.0 | 11.0 | 0.00 | 0.31 | 0.30 | 73 | 1027.9 |
| 20260510152003 | 58 | 336 | 7.0 | 12.0 | 0.00 | 0.31 | 0.30 | 76 | 1027.7 |
| 20260510151503 | 58 | 346 | 6.0 | 12.0 | 0.00 | 0.31 | 0.30 | 73 | 1027.8 |
| 20260510151003 | 58 | 353 | 5.0 | 11.0 | 0.00 | 0.31 | 0.30 | 76 | 1027.8 |
| 20260510150524 | 58 | 334 | 5.0 | 11.0 | 0.01 | 0.31 | 0.30 | 77 | 1027.8 |
| 20260510150003 | 58 | 314 | 5.0 | 10.0 | 0.01 | 0.31 | 0.30 | 77 | 1027.8 |
| 20260510145503 | 57 | 314 | 5.0 | 10.0 | 0.01 | 0.32 | 0.30 | 78 | 1028.1 |
| 20260510145003 | 56 | 326 | 5.0 | 11.0 | 0.01 | 0.33 | 0.30 | 81 | 1027.8 |
| 20260510144503 | 55 | 343 | 6.0 | 11.0 | 0.01 | 0.33 | 0.30 | 82 | 1028.0 |
| 20260510144003 | 55 | 347 | 5.0 | 9.0 | 0.02 | 0.33 | 0.30 | 83 | 1028.1 |
| 20260510143503 | 55 | 333 | 4.0 | 9.0 | 0.03 | 0.33 | 0.30 | 84 | 1028.3 |
| 20260510143003 | 54 | 331 | 4.0 | 8.0 | 0.04 | 0.33 | 0.30 | 86 | 1028.2 |
| 20260510142503 | 53 | 340 | 5.0 | 9.0 | 0.04 | 0.33 | 0.30 | 88 | 1028.4 |
| 20260510142003 | 53 | 351 | 5.0 | 11.0 | 0.04 | 0.33 | 0.30 | 90 | 1028.5 |
| 20260510141503 | 52 | 356 | 6.0 | 11.0 | 0.04 | 0.33 | 0.30 | 91 | 1028.3 |
| 20260510141003 | 51 | 353 | 6.0 | 12.0 | 0.04 | 0.32 | 0.30 | 91 | 1028.5 |
| 20260510140524 | 51 | 356 | 7.0 | 14.0 | 0.04 | 0.31 | 0.29 | 90 | 1028.8 |
| 20260510135509 | 52 | 349 | 6.0 | 13.0 | 0.04 | 0.31 | 0.29 | 91 | 1028.9 |
| 20260510135030 | 51 | 354 | 7.0 | 15.0 | 0.04 | 0.31 | 0.29 | 92 | 1028.6 |
| 20260510134503 | 51 | 355 | 10.0 | 23.0 | 0.04 | 0.31 | 0.29 | 90 | 1028.7 |
| 20260510134003 | 51 | 356 | 12.0 | 28.0 | 0.04 | 0.31 | 0.28 | 89 | 1029.0 |
| 20260510133524 | 53 | 337 | 14.0 | 28.0 | 0.02 | 0.30 | 0.27 | 87 | 1028.8 |
| 20260510133003 | 56 | 304 | 15.0 | 28.0 | 0.02 | 0.30 | 0.26 | 80 | 1028.3 |
| 20260510132524 | 56 | 288 | 13.0 | 27.0 | 0.01 | 0.31 | 0.26 | 76 | 1028.2 |
| 20260510132004 | 56 | 287 | 12.0 | 22.0 | 0.01 | 0.31 | 0.26 | 77 | 1028.2 |
| 20260510131507 | 56 | 291 | 13.0 | 19.0 | 0.01 | 0.31 | 0.26 | 77 | 1028.0 |
| 20260510131003 | 56 | 296 | 14.0 | 24.0 | 0.01 | 0.32 | 0.26 | 77 | 1028.4 |
| 20260510130503 | 56 | 297 | 14.0 | 24.0 | 0.00 | 0.31 | 0.25 | 73 | 1027.9 |
| 20260510130003 | 56 | 294 | 13.0 | 24.0 | 0.00 | 0.31 | 0.25 | 71 | 1028.1 |
| 20260510125503 | 56 | 293 | 13.0 | 22.0 | 0.00 | 0.31 | 0.25 | 72 | 1028.0 |
| 20260510125024 | 56 | 298 | 13.0 | 22.0 | 0.00 | 0.31 | 0.25 | 70 | 1028.2 |
| 20260510124506 | 57 | 301 | 13.0 | 23.0 | 0.00 | 0.31 | 0.25 | 72 | 1028.0 |
| 20260510124003 | 56 | 301 | 12.0 | 23.0 | 0.00 | 0.31 | 0.25 | 71 | 1027.9 |
| 20260510123506 | 57 | 302 | 12.0 | 23.0 | 0.00 | 0.31 | 0.25 | 71 | 1028.0 |
| 20260510123003 | 56 | 300 | 13.0 | 23.0 | 0.00 | 0.31 | 0.25 | 72 | 1028.2 |
| 20260510122503 | 56 | 298 | 12.0 | 21.0 | 0.00 | 0.31 | 0.25 | 72 | 1028.0 |
| 20260510122005 | 56 | 300 | 12.0 | 22.0 | 0.00 | 0.31 | 0.25 | 78 | 1028.1 |
| 20260510121503 | 56 | 303 | 12.0 | 22.0 | 0.00 | 0.31 | 0.25 | 75 | 1028.0 |
| 20260510121003 | 56 | 304 | 11.0 | 20.0 | 0.00 | 0.31 | 0.25 | 74 | 1028.4 |
| 20260510120503 | 55 | 303 | 11.0 | 19.0 | 0.00 | 0.31 | 0.25 | 75 | 1028.2 |
| 20260510120003 | 55 | 293 | 9.0 | 17.0 | 0.00 | 0.31 | 0.25 | 78 | 1028.3 |
| 20260510115503 | 54 | 289 | 8.0 | 15.0 | 0.00 | 0.31 | 0.25 | 80 | 1028.2 |
| 20260510115003 | 54 | 296 | 8.0 | 14.0 | 0.00 | 0.31 | 0.25 | 83 | 1028.5 |
| 20260510114503 | 53 | 297 | 9.0 | 15.0 | 0.00 | 0.31 | 0.25 | 83 | 1028.5 |
| 20260510114003 | 53 | 297 | 9.0 | 15.0 | 0.00 | 0.31 | 0.25 | 83 | 1028.6 |
| 20260510113503 | 53 | 298 | 9.0 | 17.0 | 0.00 | 0.31 | 0.25 | 84 | 1028.3 |
| 20260510113024 | 53 | 296 | 9.0 | 17.0 | 0.00 | 0.31 | 0.25 | 84 | 1028.7 |
| 20260510112503 | 53 | 298 | 9.0 | 18.0 | 0.00 | 0.31 | 0.25 | 85 | 1028.8 |
| 20260510112003 | 53 | 312 | 9.0 | 18.0 | 0.01 | 0.31 | 0.25 | 84 | 1028.4 |
| 20260510111503 | 53 | 326 | 9.0 | 19.0 | 0.02 | 0.31 | 0.25 | 86 | 1028.5 |
| 20260510111003 | 53 | 326 | 9.0 | 19.0 | 0.04 | 0.31 | 0.25 | 86 | 1028.6 |
| 20260510110503 | 53 | 325 | 9.0 | 19.0 | 0.09 | 0.33 | 0.25 | 86 | 1028.5 |
| 20260510110003 | 52 | 333 | 9.0 | 16.0 | 0.12 | 0.34 | 0.25 | 85 | 1028.4 |
| 20260510105503 | 52 | 332 | 9.0 | 16.0 | 0.15 | 0.37 | 0.25 | 87 | 1028.7 |
| 20260510105003 | 52 | 327 | 9.0 | 16.0 | 0.15 | 0.38 | 0.25 | 87 | 1028.7 |
| 20260510104503 | 52 | 332 | 8.0 | 15.0 | 0.15 | 0.38 | 0.25 | 90 | 1028.6 |
| 20260510104003 | 52 | 339 | 8.0 | 18.0 | 0.15 | 0.39 | 0.25 | 91 | 1028.5 |
| 20260510103524 | 52 | 339 | 9.0 | 18.0 | 0.15 | 0.39 | 0.25 | 91 | 1028.7 |
| 20260510103003 | 51 | 336 | 10.0 | 17.0 | 0.15 | 0.39 | 0.25 | 92 | 1028.9 |
| 20260510102503 | 51 | 334 | 12.0 | 23.0 | 0.15 | 0.39 | 0.24 | 91 | 1028.8 |
| 20260510102003 | 51 | 339 | 12.0 | 23.0 | 0.14 | 0.38 | 0.24 | 90 | 1028.9 |
| 20260510101503 | 51 | 346 | 10.0 | 21.0 | 0.13 | 0.37 | 0.23 | 90 | 1028.6 |
| 20260510101003 | 53 | 331 | 11.0 | 21.0 | 0.11 | 0.35 | 0.21 | 89 | 1028.5 |
| 20260510100503 | 53 | 322 | 11.0 | 21.0 | 0.06 | 0.30 | 0.16 | 88 | 1028.4 |
| 20260510100003 | 54 | 330 | 9.0 | 18.0 | 0.04 | 0.28 | 0.13 | 86 | 1028.2 |
| 20260510095503 | 55 | 334 | 9.0 | 18.0 | 0.01 | 0.25 | 0.10 | 83 | 1028.1 |
| 20260510095024 | 55 | 337 | 10.0 | 20.0 | 0.00 | 0.24 | 0.10 | 81 | 1027.9 |
| 20260510094503 | 57 | 322 | 12.0 | 21.0 | 0.00 | 0.24 | 0.10 | 77 | 1028.1 |
| 20260510094003 | 58 | 301 | 14.0 | 24.0 | 0.00 | 0.24 | 0.09 | 71 | 1027.9 |
| 20260510093503 | 58 | 296 | 15.0 | 29.0 | 0.00 | 0.24 | 0.09 | 69 | 1027.7 |
| 20260510093003 | 59 | 291 | 17.0 | 29.0 | 0.00 | 0.24 | 0.09 | 67 | 1027.8 |
| 20260510092503 | 59 | 290 | 17.0 | 28.0 | 0.00 | 0.24 | 0.09 | 67 | 1027.4 |
| 20260510092003 | 59 | 295 | 16.0 | 29.0 | 0.00 | 0.24 | 0.09 | 67 | 1027.7 |
| 20260510091503 | 59 | 292 | 16.0 | 29.0 | 0.00 | 0.24 | 0.09 | 67 | 1027.3 |
| 20260510091003 | 58 | 286 | 14.0 | 29.0 | 0.00 | 0.24 | 0.09 | 69 | 1027.3 |
| 20260510090524 | 58 | 284 | 15.0 | 29.0 | 0.00 | 0.24 | 0.09 | 69 | 1027.4 |
| 20260510090003 | 58 | 286 | 16.0 | 29.0 | 0.00 | 0.27 | 0.09 | 68 | 1027.8 |
| 20260510085503 | 58 | 284 | 14.0 | 24.0 | 0.00 | 0.37 | 0.09 | 68 | 1027.7 |
| 20260510085003 | 58 | 281 | 12.0 | 21.0 | 0.00 | 0.38 | 0.09 | 69 | 1027.8 |
| 20260510084503 | 58 | 282 | 13.0 | 25.0 | 0.00 | 0.38 | 0.09 | 72 | 1027.9 |
| 20260510084003 | 57 | 281 | 13.0 | 25.0 | 0.00 | 0.38 | 0.09 | 70 | 1027.8 |
| 20260510083503 | 57 | 277 | 13.0 | 22.0 | 0.00 | 0.38 | 0.09 | 72 | 1027.7 |
| 20260510083024 | 57 | 274 | 11.0 | 19.0 | 0.00 | 0.38 | 0.09 | 72 | 1027.9 |
| 20260510082503 | 57 | 278 | 9.0 | 18.0 | 0.00 | 0.38 | 0.09 | 74 | 1027.8 |
| 20260510082003 | 56 | 276 | 10.0 | 22.0 | 0.00 | 0.38 | 0.09 | 74 | 1027.9 |
| 20260510081504 | 56 | 270 | 11.0 | 22.0 | 0.00 | 0.38 | 0.09 | 76 | 1028.0 |
| 20260510081003 | 56 | 269 | 10.0 | 22.0 | 0.00 | 0.38 | 0.09 | 76 | 1028.0 |
| 20260510080524 | 56 | 268 | 11.0 | 17.0 | 0.00 | 0.38 | 0.09 | 75 | 1027.9 |
| 20260510080003 | 56 | 265 | 12.0 | 21.0 | 0.00 | 0.38 | 0.09 | 76 | 1028.0 |
| 20260510075503 | 56 | 266 | 12.0 | 21.0 | 0.00 | 0.38 | 0.09 | 75 | 1028.0 |
| 20260510075003 | 56 | 276 | 11.0 | 19.0 | 0.00 | 0.38 | 0.09 | 75 | 1027.9 |
| 20260510074503 | 56 | 280 | 11.0 | 18.0 | 0.00 | 0.38 | 0.09 | 75 | 1027.9 |
| 20260510074024 | 56 | 274 | 10.0 | 18.0 | 0.00 | 0.38 | 0.09 | 76 | 1027.8 |
| 20260510073503 | 55 | 267 | 10.0 | 16.0 | 0.00 | 0.38 | 0.09 | 79 | 1027.9 |
| 20260510073003 | 55 | 260 | 11.0 | 16.0 | 0.00 | 0.38 | 0.09 | 78 | 1027.9 |
| 20260510072503 | 55 | 262 | 10.0 | 16.0 | 0.00 | 0.38 | 0.09 | 79 | 1028.0 |
| 20260510072024 | 55 | 268 | 10.0 | 18.0 | 0.00 | 0.38 | 0.09 | 79 | 1028.0 |
| 20260510071503 | 55 | 269 | 11.0 | 19.0 | 0.00 | 0.38 | 0.09 | 79 | 1028.0 |
| 20260510071003 | 55 | 268 | 12.0 | 21.0 | 0.00 | 0.38 | 0.09 | 78 | 1027.7 |
| 20260510070503 | 55 | 268 | 12.0 | 21.0 | 0.00 | 0.38 | 0.09 | 77 | 1027.7 |
| 20260510070003 | 55 | 266 | 12.0 | 19.0 | 0.00 | 0.38 | 0.09 | 78 | 1027.6 |
| 20260510065503 | 55 | 263 | 12.0 | 19.0 | 0.00 | 0.38 | 0.09 | 77 | 1027.6 |
| 20260510065003 | 55 | 265 | 10.0 | 17.0 | 0.00 | 0.38 | 0.09 | 77 | 1027.6 |
| 20260510064503 | 55 | 274 | 10.0 | 18.0 | 0.00 | 0.38 | 0.09 | 77 | 1027.7 |
| 20260510064003 | 55 | 277 | 10.0 | 18.0 | 0.00 | 0.38 | 0.09 | 78 | 1027.8 |
| 20260510063504 | 54 | 273 | 9.0 | 16.0 | 0.00 | 0.38 | 0.09 | 79 | 1027.6 |
| 20260510063003 | 54 | 268 | 10.0 | 19.0 | 0.00 | 0.38 | 0.09 | 81 | 1027.9 |
| 20260510062503 | 54 | 266 | 11.0 | 19.0 | 0.00 | 0.38 | 0.09 | 80 | 1027.7 |
| 20260510062024 | 54 | 263 | 10.0 | 17.0 | 0.00 | 0.38 | 0.09 | 81 | 1027.7 |
| 20260510061503 | 53 | 264 | 9.0 | 16.0 | 0.00 | 0.38 | 0.09 | 82 | 1027.2 |
| 20260510061003 | 53 | 268 | 8.0 | 13.0 | 0.00 | 0.38 | 0.09 | 83 | 1027.7 |
| 20260510060503 | 53 | 269 | 8.0 | 13.0 | 0.00 | 0.38 | 0.09 | 84 | 1027.3 |
| 20260510060024 | 53 | 268 | 8.0 | 13.0 | 0.00 | 0.38 | 0.09 | 85 | 1027.4 |
| 20260510055503 | 53 | 268 | 9.0 | 14.0 | 0.00 | 0.38 | 0.09 | 85 | 1027.4 |
| 20260510055003 | 52 | 268 | 9.0 | 15.0 | 0.00 | 0.38 | 0.09 | 85 | 1027.6 |
| 20260510054503 | 52 | 267 | 9.0 | 15.0 | 0.00 | 0.38 | 0.09 | 86 | 1027.4 |
| 20260510054003 | 52 | 267 | 8.0 | 13.0 | 0.00 | 0.38 | 0.09 | 86 | 1027.4 |
| 20260510053503 | 52 | 272 | 8.0 | 14.0 | 0.00 | 0.38 | 0.09 | 86 | 1027.4 |
| 20260510053003 | 52 | 276 | 7.0 | 14.0 | 0.00 | 0.38 | 0.09 | 86 | 1027.3 |
| 20260510052503 | 52 | 270 | 7.0 | 12.0 | 0.00 | 0.38 | 0.09 | 86 | 1027.6 |
| 20260510052003 | 52 | 263 | 6.0 | 11.0 | 0.00 | 0.38 | 0.09 | 86 | 1027.6 |
| 20260510051503 | 53 | 265 | 5.0 | 11.0 | 0.00 | 0.38 | 0.09 | 85 | 1027.3 |
| 20260510051024 | 53 | 271 | 5.0 | 10.0 | 0.00 | 0.38 | 0.09 | 85 | 1027.4 |
| 20260510050503 | 52 | 263 | 6.0 | 11.0 | 0.00 | 0.38 | 0.09 | 86 | 1027.7 |
| 20260510050003 | 52 | 254 | 6.0 | 11.0 | 0.00 | 0.38 | 0.09 | 87 | 1027.4 |
| 20260510045524 | 52 | 250 | 6.0 | 10.0 | 0.00 | 0.38 | 0.09 | 86 | 1027.6 |
| 20260510045003 | 53 | 246 | 6.0 | 10.0 | 0.00 | 0.38 | 0.09 | 85 | 1027.6 |
| 20260510044503 | 53 | 249 | 6.0 | 10.0 | 0.00 | 0.38 | 0.09 | 84 | 1027.7 |
| 20260510044003 | 53 | 255 | 6.0 | 9.0 | 0.00 | 0.38 | 0.09 | 85 | 1027.4 |
| 20260510043503 | 52 | 245 | 6.0 | 10.0 | 0.00 | 0.38 | 0.09 | 85 | 1027.6 |
| 20260510043003 | 52 | 243 | 6.0 | 10.0 | 0.00 | 0.38 | 0.09 | 86 | 1027.8 |
| 20260510042503 | 52 | 251 | 5.0 | 8.0 | 0.00 | 0.38 | 0.09 | 88 | 1027.9 |
| 20260510042003 | 52 | 252 | 4.0 | 8.0 | 0.00 | 0.38 | 0.09 | 89 | 1027.6 |
| 20260510041503 | 52 | 243 | 4.0 | 8.0 | 0.00 | 0.38 | 0.09 | 88 | 1027.7 |
| 20260510041003 | 52 | 245 | 4.0 | 8.0 | 0.00 | 0.38 | 0.09 | 88 | 1027.9 |
| 20260510040503 | 52 | 256 | 4.0 | 6.0 | 0.00 | 0.38 | 0.09 | 88 | 1027.7 |
| 20260510040024 | 52 | 250 | 4.0 | 6.0 | 0.00 | 0.38 | 0.09 | 87 | 1027.8 |
| 20260510035503 | 52 | 245 | 4.0 | 6.0 | 0.01 | 0.38 | 0.09 | 87 | 1027.8 |
| 20260510035003 | 52 | 249 | 4.0 | 6.0 | 0.03 | 0.38 | 0.09 | 87 | 1027.9 |
| 20260510034503 | 52 | 249 | 4.0 | 6.0 | 0.03 | 0.38 | 0.09 | 88 | 1027.8 |
| 20260510034003 | 52 | 243 | 4.0 | 9.0 | 0.03 | 0.38 | 0.09 | 87 | 1027.9 |
| 20260510033503 | 52 | 234 | 5.0 | 9.0 | 0.03 | 0.38 | 0.09 | 87 | 1028.0 |
| 20260510033003 | 52 | 235 | 5.0 | 9.0 | 0.03 | 0.38 | 0.09 | 87 | 1027.7 |
| 20260510032503 | 52 | 242 | 5.0 | 8.0 | 0.03 | 0.38 | 0.09 | 88 | 1027.7 |
| 20260510032003 | 52 | 261 | 5.0 | 10.0 | 0.03 | 0.38 | 0.09 | 88 | 1028.0 |
| 20260510031503 | 52 | 280 | 6.0 | 10.0 | 0.03 | 0.38 | 0.09 | 87 | 1028.0 |
| 20260510031003 | 52 | 287 | 7.0 | 11.0 | 0.03 | 0.38 | 0.09 | 88 | 1028.1 |
| 20260510030503 | 52 | 291 | 7.0 | 11.0 | 0.03 | 0.38 | 0.09 | 87 | 1028.0 |
| 20260510030003 | 52 | 289 | 6.0 | 11.0 | 0.03 | 0.38 | 0.09 | 87 | 1028.0 |
| 20260510025503 | 52 | 279 | 6.0 | 9.0 | 0.02 | 0.37 | 0.08 | 85 | 1028.0 |
| 20260510025003 | 52 | 263 | 6.0 | 10.0 | 0.00 | 0.35 | 0.07 | 84 | 1028.1 |
| 20260510024503 | 52 | 248 | 7.0 | 11.0 | 0.00 | 0.35 | 0.07 | 83 | 1028.1 |
| 20260510024024 | 52 | 242 | 6.0 | 11.0 | 0.00 | 0.35 | 0.07 | 82 | 1028.2 |
| 20260510023503 | 52 | 227 | 7.0 | 10.0 | 0.00 | 0.35 | 0.07 | 83 | 1027.9 |
| 20260510023003 | 52 | 213 | 6.0 | 10.0 | 0.00 | 0.35 | 0.07 | 83 | 1028.1 |
| 20260510022503 | 52 | 210 | 6.0 | 9.0 | 0.00 | 0.35 | 0.07 | 84 | 1028.1 |
| 20260510022003 | 52 | 215 | 5.0 | 10.0 | 0.00 | 0.35 | 0.07 | 84 | 1028.1 |
| 20260510021503 | 52 | 222 | 5.0 | 10.0 | 0.00 | 0.35 | 0.07 | 84 | 1028.1 |
| 20260510021003 | 51 | 223 | 6.0 | 10.0 | 0.00 | 0.35 | 0.07 | 84 | 1028.2 |
| 20260510020503 | 51 | 228 | 6.0 | 11.0 | 0.00 | 0.35 | 0.07 | 84 | 1028.0 |
| 20260510020004 | 51 | 225 | 5.0 | 11.0 | 0.00 | 0.35 | 0.07 | 84 | 1028.1 |
| 20260510015524 | 51 | 219 | 5.0 | 10.0 | 0.00 | 0.35 | 0.07 | 84 | 1028.2 |
| 20260510015024 | 51 | 227 | 6.0 | 11.0 | 0.00 | 0.35 | 0.07 | 85 | 1028.1 |
| 20260510014503 | 51 | 228 | 7.0 | 13.0 | 0.00 | 0.35 | 0.07 | 85 | 1028.4 |
| 20260510014003 | 51 | 226 | 7.0 | 13.0 | 0.00 | 0.35 | 0.07 | 86 | 1028.0 |
| 20260510013503 | 51 | 221 | 7.0 | 12.0 | 0.00 | 0.35 | 0.07 | 87 | 1028.2 |
| 20260510013003 | 51 | 219 | 7.0 | 12.0 | 0.00 | 0.35 | 0.07 | 87 | 1028.3 |
| 20260510012503 | 51 | 223 | 7.0 | 12.0 | 0.00 | 0.35 | 0.07 | 87 | 1028.2 |
| 20260510012003 | 51 | 220 | 7.0 | 12.0 | 0.00 | 0.35 | 0.07 | 87 | 1028.3 |
| 20260510011503 | 51 | 222 | 7.0 | 12.0 | 0.00 | 0.35 | 0.07 | 87 | 1028.4 |
| 20260510011003 | 51 | 237 | 7.0 | 11.0 | 0.00 | 0.35 | 0.07 | 86 | 1028.1 |
| 20260510010503 | 52 | 254 | 7.0 | 11.0 | 0.00 | 0.35 | 0.07 | 85 | 1028.6 |
| 20260510010003 | 51 | 251 | 7.0 | 12.0 | 0.00 | 0.35 | 0.07 | 86 | 1028.3 |
| 20260510005503 | 52 | 247 | 7.0 | 13.0 | 0.00 | 0.35 | 0.07 | 85 | 1028.4 |
| 20260510005003 | 52 | 265 | 7.0 | 15.0 | 0.00 | 0.35 | 0.07 | 85 | 1028.3 |
| 20260510004503 | 53 | 275 | 8.0 | 15.0 | 0.00 | 0.35 | 0.07 | 83 | 1028.4 |
| 20260510004003 | 53 | 276 | 9.0 | 16.0 | 0.00 | 0.35 | 0.07 | 84 | 1028.3 |
| 20260510003503 | 52 | 271 | 8.0 | 16.0 | 0.00 | 0.35 | 0.07 | 85 | 1028.4 |
| 20260510003024 | 52 | 267 | 7.0 | 13.0 | 0.00 | 0.35 | 0.07 | 86 | 1028.5 |
| 20260510002503 | 52 | 274 | 7.0 | 14.0 | 0.00 | 0.35 | 0.07 | 87 | 1028.6 |
| 20260510002003 | 52 | 285 | 8.0 | 15.0 | 0.00 | 0.35 | 0.07 | 86 | 1028.5 |
| 20260510001503 | 52 | 290 | 8.0 | 15.0 | 0.00 | 0.35 | 0.07 | 86 | 1028.3 |
| 20260510001003 | 52 | 288 | 8.0 | 15.0 | 0.01 | 0.35 | 0.07 | 87 | 1028.5 |
| 20260510000503 | 52 | 287 | 9.0 | 16.0 | 0.01 | 0.35 | 0.07 | 87 | 1028.4 |
| 20260510000003 | 52 | 286 | 8.0 | 16.0 | 0.02 | 0.35 | 0.07 | 88 | 1028.4 |
| 20260509235503 | 52 | 284 | 7.0 | 13.0 | 0.04 | 0.35 | 0.07 | 90 | 1028.4 |
| 20260509235003 | 52 | 284 | 6.0 | 10.0 | 0.06 | 0.35 | 0.07 | 91 | 1028.6 |
| 20260509234503 | 52 | 289 | 6.0 | 10.0 | 0.06 | 0.35 | 0.06 | 92 | 1028.4 |
| 20260509234024 | 52 | 298 | 5.0 | 10.0 | 0.06 | 0.35 | 0.06 | 92 | 1028.6 |
| 20260509233503 | 52 | 295 | 4.0 | 9.0 | 0.06 | 0.35 | 0.06 | 92 | 1028.6 |
| 20260509233003 | 52 | 292 | 3.0 | 6.0 | 0.06 | 0.35 | 0.06 | 93 | 1028.5 |
| 20260509232503 | 52 | 305 | 3.0 | 5.0 | 0.06 | 0.35 | 0.06 | 93 | 1028.6 |
| 20260509232003 | 52 | 303 | 4.0 | 7.0 | 0.06 | 0.35 | 0.06 | 93 | 1028.8 |
| 20260509231503 | 52 | 299 | 4.0 | 7.0 | 0.06 | 0.35 | 0.06 | 93 | 1028.7 |
| 20260509231003 | 52 | 312 | 4.0 | 7.0 | 0.06 | 0.35 | 0.06 | 93 | 1029.1 |
| 20260509230503 | 52 | 349 | 4.0 | 9.0 | 0.06 | 0.34 | 0.06 | 93 | 1028.8 |
| 20260509230004 | 52 | 6 | 5.0 | 10.0 | 0.05 | 0.33 | 0.05 | 93 | 1028.6 |
| 20260509225503 | 52 | 5 | 4.0 | 10.0 | 0.03 | 0.31 | 0.03 | 92 | 1028.7 |
| 20260509225003 | 52 | 3 | 3.0 | 8.0 | 0.01 | 0.30 | 0.01 | 92 | 1028.5 |
| 20260509224503 | 52 | 19 | 2.0 | 6.0 | 0.01 | 0.30 | 0.01 | 91 | 1028.6 |
| 20260509224003 | 52 | 73 | 2.0 | 3.0 | 0.01 | 0.30 | 0.01 | 90 | 1028.4 |
| 20260509223503 | 53 | 83 | 1.0 | 3.0 | 0.01 | 0.30 | 0.01 | 90 | 1028.2 |
| 20260509223003 | 53 | 31 | 1.0 | 6.0 | 0.01 | 0.30 | 0.01 | 90 | 1028.2 |